Lat: 43.75N, Lon: 87.72W  ICAO: KSBM
Web Search

Helpful Tip: Type the letters wx in the search engine next time you need to find us.

Feedback

Sheboygan Hourly Weather

36 Hour Weather Scroll   °F Click to change Sheboygan hourly weather to Imperial units.Click to change Sheboygan hourly weather to Metric units. °C
Currently, Overcast, temperature is 36°F2°C, dew point 30.0°F-1°C, humidity 78%. Wind direction is SW at 3 mph5 km/h with visibility of 10 mile(s) mi16 km. Barometric pressure is 29.75 in1007 mb.

Nov 29
9:00 PM

Nov 29
10:00 PM

Nov 29
11:00 PM

Nov 30
MIDNIGHT

Nov 30
1:00 AM

Nov 30
2:00 AM

Nov 30
3:00 AM

Nov 30
4:00 AM

Nov 30
5:00 AM

Nov 30
6:00 AM

Nov 30
7:00 AM

Nov 30
8:00 AM

Nov 30
9:00 AM

Nov 30
10:00 AM

Nov 30
11:00 AM

Nov 30
NOON

Nov 30
1:00 PM

Nov 30
2:00 PM

Nov 30
3:00 PM

Nov 30
4:00 PM

Nov 30
5:00 PM

Nov 30
6:00 PM

Nov 30
7:00 PM

Nov 30
8:00 PM

Nov 30
9:00 PM

Nov 30
10:00 PM

Nov 30
11:00 PM

Dec 01
MIDNIGHT

Dec 01
1:00 AM

Dec 01
2:00 AM

Dec 01
6:00 AM

Dec 01
7:00 AM

Dec 01
8:00 AM

Dec 01
NOON

Dec 01
1:00 PM

Dec 01
2:00 PM
Mostly Clear Mostly Clear Mostly Cloudy Mostly Cloudy Mostly Cloudy Cloudy Cloudy Cloudy Cloudy Cloudy Cloudy Cloudy Cloudy Cloudy Cloudy Cloudy Cloudy Cloudy Cloudy Cloudy Cloudy Cloudy Cloudy Partly Cloudy Partly Cloudy Partly Cloudy Mostly Cloudy Mostly Cloudy Mostly Cloudy Clear Clear Clear Cloudy Cloudy Cloudy
Mostly Clear Mostly Clear Mostly Cloudy Mostly Cloudy Mostly Cloudy Cloudy Cloudy Cloudy Cloudy Cloudy Cloudy Cloudy Cloudy Cloudy Cloudy Cloudy Cloudy Cloudy Cloudy Cloudy Cloudy Cloudy Cloudy Partly Cloudy Partly Cloudy Partly Cloudy Mostly Cloudy Mostly Cloudy Mostly Cloudy Clear Clear Clear Cloudy Cloudy Cloudy
28°F-2°C 27°F-3°C 26°F-3°C 25°F-4°C 26°F-3°C 26°F-3°C 27°F-3°C 28°F-2°C 29°F-2°C 30°F-1°C 32°F0°C 35°F2°C 37°F3°C 39°F4°C 42°F6°C 44°F7°C 45°F7°C 45°F7°C 46°F8°C 45°F7°C 43°F6°C 42°F6°C 42°F6°C 43°F6°C 43°F6°C 44°F7°C 44°F7°C 45°F7°C 44°F7°C 44°F7°C 43°F6°C 44°F7°C 46°F8°C 47°F8°C 31°F-1°C 16°F-9°C
- - - - - - - - - - Snow Rain Rain Rain Rain Rain - - - - - - - - - - - - - - - - - - - -
0% 0% 0% 0% 11% 11% 11% 11% 11% 11% 36% 36% 36% 36% 36% 36% 0% 0% 0% 0% 0% 0% 0% 0% 0% 0% 0% 0% 4% 4% 4% 8% 8% 8% % %
22°F-6°C 22°F-6°C 23°F-5°C 23°F-5°C 24°F-4°C 25°F-4°C 26°F-3°C 27°F-3°C 27°F-3°C 28°F-2°C 29°F-2°C 30°F-1°C 31°F-1°C 31°F-1°C 31°F-1°C 31°F-1°C 32°F0°C 32°F0°C 33°F1°C 33°F1°C 34°F1°C 34°F1°C 35°F2°C 36°F2°C 37°F3°C 38°F3°C 38°F3°C 39°F4°C 39°F4°C 38°F3°C 38°F3°C 37°F3°C 36°F2°C 35°F2°C 23°F-5°C 12°F-11°C
78% 81% 88% 92% 92% 96% 96% 96% 92% 92% 89% 82% 79% 73% 65% 60% 60% 60% 60% 63% 70% 73% 76% 76% 79% 79% 79% 79% 82% 79% 82% 76% 68% 63% 72% 84%
NW NW NNW NNW W SW SSE SSE S S S S S SSE SW SW SSW SSW SSW SSW SSW SSW SSW SSW SSW SSW SSW SW SSW SSW SSW W W NW SSE E
6 mph 6 mph 2 mph 2 mph 2 mph 2 mph 2 mph 2 mph 6 mph 6 mph 6 mph 12 mph 12 mph 12 mph 13 mph 13 mph 13 mph 9 mph 9 mph 9 mph 7 mph 7 mph 7 mph 6 mph 6 mph 6 mph 8 mph 8 mph 8 mph 12 mph 12 mph 12 mph 17 mph 17 mph 17 mph mph
10 mi16 km 10 mi16 km 10 mi16 km 10 mi16 km 10 mi16 km 10 mi16 km 10 mi16 km 10 mi16 km 10 mi16 km 10 mi16 km 10 mi16 km 10 mi16 km 10 mi16 km 10 mi16 km 10 mi16 km 10 mi16 km 10 mi16 km 10 mi16 km 10 mi16 km 10 mi16 km 10 mi16 km 10 mi16 km 10 mi16 km 10 mi16 km 10 mi16 km 10 mi16 km 10 mi16 km 10 mi16 km 10 mi16 km 10 mi16 km 10 mi16 km 10 mi16 km 10 mi16 km 10 mi16 km 5 mi8 km .5 mi1 km
Hour (CST)
Weather
Clouds
Temperature
Precip. Type
POP
Dewpoint
Humidity
Wind Direction
Wind Speed
Visibility
POP = Probability of Precipitation. ** Indicates missing data/values from model statistics.

24 Hour Forecast

Tonight - Cloudy with isolated light rain showers and snow showers in the evening, then partly cloudy in the late evening and overnight. Lows in the upper 20s. Southwest winds 5 to 15 mph shifting to the northwest 10 to 15 mph after midnight. Chance of precipitation 20%.
Tuesday - Sunny. Highs around 40. Northwest winds 10 to 20 mph.

48 Hour Forecast API Feed


Mon, Nov 29
9:00 pm

Mon, Nov 29
10:00 pm

Mon, Nov 29
11:00 pm

Tue, Nov 30
Midnight

Tue, Nov 30
1:00 am

Tue, Nov 30
2:00 am

Tue, Nov 30
3:00 am

Tue, Nov 30
4:00 am

Tue, Nov 30
5:00 am

Tue, Nov 30
6:00 am

Tue, Nov 30
7:00 am

Tue, Nov 30
8:00 am

Tue, Nov 30
9:00 am

Tue, Nov 30
10:00 am

Tue, Nov 30
11:00 am

Tue, Nov 30
Noon

Tue, Nov 30
1:00 pm

Tue, Nov 30
2:00 pm

Tue, Nov 30
3:00 pm

Tue, Nov 30
4:00 pm

Tue, Nov 30
5:00 pm

Tue, Nov 30
6:00 pm

Tue, Nov 30
7:00 pm

Tue, Nov 30
8:00 pm

Tue, Nov 30
9:00 pm

Tue, Nov 30
10:00 pm

Tue, Nov 30
11:00 pm

Wed, Dec 1
Midnight

Wed, Dec 1
1:00 am

Wed, Dec 1
2:00 am

Wed, Dec 1
3:00 am

Wed, Dec 1
4:00 am

Wed, Dec 1
5:00 am

Wed, Dec 1
6:00 am

Wed, Dec 1
7:00 am

Wed, Dec 1
8:00 am

Wed, Dec 1
9:00 am

Wed, Dec 1
10:00 am

Wed, Dec 1
11:00 am

Wed, Dec 1
Noon

Wed, Dec 1
1:00 pm

Wed, Dec 1
2:00 pm

Wed, Dec 1
3:00 pm

Wed, Dec 1
4:00 pm

Wed, Dec 1
5:00 pm

Wed, Dec 1
6:00 pm

Wed, Dec 1
7:00 pm

Wed, Dec 1
8:00 pm
OvercastOvercastPartly CloudyPartly CloudyClearClearPartly CloudyPartly CloudyClearClearClearSunnySunnySunnySunnySunnySunnyPartly CloudyPartly CloudyOvercastOvercastOvercastOvercastOvercastOvercastClearOvercastOvercastOvercastCloudyPartly CloudyOvercastPartly CloudyOvercastPatchy Rain PossibleOvercastOvercastLight DrizzleLight DrizzleLight DrizzleLight RainPartly CloudyPartly CloudyPartly CloudyOvercastOvercastOvercastPartly Cloudy
Overcast Overcast Partly cloudy Partly cloudy Clear Clear Partly cloudy Partly cloudy Clear Clear Clear Sunny Sunny Sunny Sunny Sunny Sunny Partly cloudy Partly cloudy Overcast Overcast Overcast Overcast Overcast Overcast Clear Overcast Overcast Overcast Cloudy Partly cloudy Overcast Partly cloudy Overcast Patchy rain possible Overcast Overcast Light drizzle Light drizzle Light drizzle Light rain Partly cloudy Partly cloudy Partly cloudy Overcast Overcast Overcast Partly cloudy
39°F
4°C
39°F
4°C
38°F
3°C
35°F
2°C
35°F
2°C
34°F
1°C
32°F
0°C
31°F
-1°C
31°F
-1°C
31°F
-1°C
31°F
-1°C
31°F
-0°C
33°F
0°C
35°F
2°C
41°F
5°C
44°F
6°C
44°F
7°C
44°F
6°C
43°F
6°C
41°F
5°C
38°F
4°C
36°F
2°C
35°F
2°C
34°F
1°C
34°F
1°C
33°F
1°C
33°F
1°C
33°F
0°C
32°F
0°C
32°F
0°C
33°F
0°C
33°F
1°C
34°F
1°C
35°F
2°C
37°F
3°C
38°F
4°C
38°F
3°C
39°F
4°C
41°F
5°C
44°F
6°C
47°F
8°C
49°F
9°C
49°F
10°C
47°F
9°C
45°F
7°C
43°F
6°C
42°F
6°C
41°F
5°C
31°F
-1°C
31°F
-0°C
31°F
-1°C
29°F
-2°C
29°F
-2°C
29°F
-2°C
30°F
-1°C
29°F
-2°C
29°F
-2°C
28°F
-2°C
29°F
-2°C
29°F
-2°C
30°F
-1°C
31°F
-1°C
35°F
2°C
36°F
2°C
34°F
1°C
32°F
0°C
32°F
-0°C
31°F
-1°C
29°F
-2°C
28°F
-2°C
27°F
-3°C
27°F
-3°C
26°F
-4°C
25°F
-4°C
24°F
-4°C
24°F
-5°C
22°F
-5°C
21°F
-6°C
22°F
-6°C
23°F
-5°C
25°F
-4°C
26°F
-3°C
27°F
-3°C
28°F
-3°C
32°F
-0°C
35°F
2°C
36°F
2°C
38°F
3°C
39°F
4°C
40°F
5°C
41°F
5°C
40°F
4°C
39°F
4°C
38°F
3°C
37°F
3°C
36°F
2°C
29.77 in
1008 mb
29.77 in
1008 mb
29.77 in
1008 mb
29.8 in
1009 mb
29.8 in
1009 mb
29.83 in
1010 mb
29.88 in
1012 mb
29.88 in
1012 mb
29.91 in
1013 mb
29.91 in
1013 mb
29.94 in
1014 mb
29.94 in
1014 mb
29.94 in
1014 mb
29.94 in
1014 mb
29.94 in
1014 mb
29.94 in
1014 mb
29.97 in
1015 mb
29.97 in
1015 mb
29.97 in
1015 mb
30 in
1016 mb
30.03 in
1017 mb
30.03 in
1017 mb
30.06 in
1018 mb
30.06 in
1018 mb
30.09 in
1019 mb
30.09 in
1019 mb
30.06 in
1018 mb
30.06 in
1018 mb
30.03 in
1017 mb
30.03 in
1017 mb
30.03 in
1017 mb
30 in
1016 mb
29.97 in
1015 mb
29.94 in
1014 mb
29.91 in
1013 mb
29.91 in
1013 mb
29.88 in
1012 mb
29.83 in
1010 mb
29.8 in
1009 mb
29.77 in
1008 mb
29.74 in
1007 mb
29.71 in
1006 mb
29.71 in
1006 mb
29.71 in
1006 mb
29.71 in
1006 mb
29.74 in
1007 mb
29.74 in
1007 mb
29.77 in
1008 mb
71%74%75%78%80%84%92%93%91%91%90%90%88%83%78%75%69%63%65%67%70%73%74%74%72%70%69%68%66%63%64%66%68%70%68%64%79%86%83%80%74%72%73%75%80%83%82%80%
SSSWWNWNNWNNWNNWNWNWWNWWNWWNWWWNWWNWWNWWNWNWNWNWNWNWWNWWNWWNWNWNWNNWNSSSESSSSSSSWSSWSSWSWSWWSWWSWWWSWWSWWW
10 mph
17 km/h
6 mph
10 km/h
6 mph
9 km/h
11 mph
17 km/h
14 mph
23 km/h
15 mph
24 km/h
14 mph
22 km/h
13 mph
20 km/h
13 mph
21 km/h
11 mph
18 km/h
11 mph
18 km/h
11 mph
18 km/h
13 mph
20 km/h
15 mph
24 km/h
18 mph
28 km/h
19 mph
30 km/h
20 mph
32 km/h
20 mph
32 km/h
19 mph
31 km/h
16 mph
26 km/h
14 mph
22 km/h
11 mph
18 km/h
10 mph
17 km/h
11 mph
17 km/h
11 mph
17 km/h
10 mph
16 km/h
8 mph
13 km/h
8 mph
13 km/h
6 mph
9 km/h
0 mph
1 km/h
4 mph
7 km/h
7 mph
12 km/h
9 mph
15 km/h
11 mph
17 km/h
13 mph
20 km/h
16 mph
26 km/h
18 mph
28 km/h
17 mph
28 km/h
19 mph
31 km/h
19 mph
30 km/h
18 mph
29 km/h
15 mph
25 km/h
12 mph
19 km/h
10 mph
16 km/h
9 mph
14 km/h
9 mph
14 km/h
9 mph
15 km/h
11 mph
17 km/h
0%0%0%0%0%0%0%0%0%0%0%0%0%0%0%0%0%0%0%0%0%0%0%0%0%0%0%0%0%0%0%0%0%0%81%0%0%70%74%64%73%0%0%0%0%0%0%0%
6 mi
10 km
6 mi
10 km
6 mi
10 km
6 mi
10 km
6 mi
10 km
6 mi
10 km
6 mi
10 km
6 mi
10 km
6 mi
10 km
6 mi
10 km
6 mi
10 km
6 mi
10 km
6 mi
10 km
6 mi
10 km
6 mi
10 km
6 mi
10 km
6 mi
10 km
6 mi
10 km
6 mi
10 km
6 mi
10 km
6 mi
10 km
6 mi
10 km
6 mi
10 km
6 mi
10 km
6 mi
10 km
6 mi
10 km
6 mi
10 km
6 mi
10 km
6 mi
10 km
6 mi
10 km
6 mi
10 km
6 mi
10 km
6 mi
10 km
6 mi
10 km
6 mi
10 km
6 mi
10 km
6 mi
10 km
1 mi
2 km
1 mi
2 km
1 mi
2 km
6 mi
9 km
6 mi
10 km
6 mi
10 km
6 mi
10 km
6 mi
10 km
6 mi
10 km
6 mi
10 km
6 mi
10 km

Day/Time
Weather
Condition
Temperature
Dew Point
Pressure
Humidity
Wind Direction
Wind Speed
Prob Precip %
Visibility
Prob Precip % = Probability of Precipitation.